Weather in Bekhtery

Ukraine / Kherson District     46°14′55″N   32°17′32″E
temp.,
°C
wind,
m/s
gust,
m/s
humid.,
%
clouds,
%
prec.,
mm/h
press.,
hPa
HPBL,
m
4 march, thu
thu423:00+4sse007150 0.0 102822
02:00+4sw347425 0.0 102739
05:00+4sw58860 0.0 1024179
08:00+5sw611790 0.0 1023423
11:00+7sw912690 0.0 1021562
14:00+7ssw914700 0.0 1018553
17:00+6ssw9157751 0.0 1016549
20:00+6ssw9168226 0.0 1016413
5 march, fri
fri523:00+6sw915840 0.0 1015362
02:00+6sw612918 0.0 1014271
05:00+5ssw599349 0.0 1013192
08:00+7ssw699241 0.0 1012269
11:00+9sw797766 0.0 1012345
14:00+9sw686855 0.0 1010321
17:00+8wsw456784 0.0 1010178
20:00+8sw457070 0.0 101275
6 march, sat
sat623:00+7nnw5874100 0.0 1014203
02:00+5nnw81185100 0.0 1016541
05:00+4n81081100 0.0 1017885
08:00+3n81166100 0.0 1021799
11:00+4n8949100 0.0 10231243
14:00+4nnw8943100 0.0 10241580
17:00+4nnw893466 0.0 10252172
20:00+2n594533 0.0 1028912
7 march, sun
sun723:000n35510 0.0 1030268
02:000nw23480 0.0 1030205
05:000wsw23470 0.0 1029213
08:00+2w46460 0.0 10291205
11:00+4w68420 0.0 10281565
14:00+4wsw79460 0.0 10251291
17:00+4sw810530 0.0 1022876
20:00+4sw914620 0.0 1022600
8 march, mon
mon823:00+4wsw914670 0.0 1021601
02:00+4wsw8147516 0.0 1019535
05:00+4wsw7128016 0.0 1017435
08:00+5wsw710748 0.0 1017718
11:00+6wsw79640 0.0 1017946
14:00+6wsw796246 0.0 1016736
17:00+5wsw566733 0.0 1015323
20:00+3w467319 0.0 1016159